Location: Unspecified
(44.4377°N, 88.0525°W)
Time: 09:02:41
(UTC-05:00)

Cosmos 2058 - Visible Passes

Search period start: 02 September 2014 00:00
Search period end: 12 September 2014 00:00
Orbit: 570 x 595 km, 82.5° (Epoch: 01 September)

Date Brightness Start Highest point End Pass type
(mag) Time Alt. Az. Time Alt. Az. Time Alt. Az.
02 Sep 5.3 22:13:58 10° NNE 22:14:52 14° NNE 22:14:52 14° NNE visible
02 Sep 5.9 23:50:38 10° NNW 23:51:15 14° NNW 23:51:15 14° NNW visible
03 Sep 5.2 22:19:26 10° NNE 22:20:37 17° NNE 22:20:37 17° NNE visible
03 Sep 6.1 23:56:44 10° NW 23:57:00 11° NW 23:57:00 11° NW visible
04 Sep 5.1 22:25:01 10° N 22:26:23 19° NNE 22:26:23 19° NNE visible
05 Sep 5.1 22:30:41 10° N 22:32:10 21° N 22:32:10 21° N visible
06 Sep 5.1 22:36:25 10° N 22:37:57 22° N 22:37:57 22° N visible
07 Sep 5.2 22:42:13 10° NNW 22:43:45 22° NNW 22:43:45 22° NNW visible
08 Sep 5.2 21:12:18 10° NNE 21:13:10 13° NE 21:13:10 13° NE visible
08 Sep 5.4 22:48:06 10° NNW 22:49:33 21° NNW 22:49:33 21° NNW visible
09 Sep 4.9 21:17:31 10° NNE 21:18:59 16° NE 21:18:59 16° NE visible
09 Sep 5.5 22:54:03 10° NNW 22:55:23 18° NW 22:55:23 18° NW visible
10 Sep 4.7 21:22:56 10° NNE 21:24:49 21° NE 21:24:49 21° NE visible
10 Sep 5.7 23:00:07 10° NW 23:01:13 16° NW 23:01:13 16° NW visible
11 Sep 4.4 21:28:29 10° N 21:30:40 26° NNE 21:30:40 26° NNE visible
11 Sep 5.9 23:06:20 10° NW 23:07:04 13° NW 23:07:04 13° NW visible
